Starlink 4591

operational
NORAD ID: 53607 Int'l Des: 2022-104 Owner: SPXS Country: US Constellation: starlink
LEOCIRCULAR

Starlink 4591について

説明を読み込み中...

リアルタイム位置

3D地球を読み込み中...

次回通過

高度履歴

Altitude vs Time

uPlot chart will show altitude changes over time

軌道要素

1 53607U 22104V 25302.19871681 .00001059 00000-0 84600-4 0 9990
2 53607 53.2151 109.4597 0001263 92.2336 267.8801 15.08840382175837
Epoch: Oct 29, 2025 • Age: 62 hours

現在のステータス

高度 543.4 km
速度 7.60 km/s
衛星直下点 43.27°N, 176.49°E
打ち上げ日 Aug 28, 2022
運用期間 3.1 years
タイプ internet

技術仕様

分類 Payload
質量 300.00 kg
乾燥質量 290.00 kg
総質量 300.00 kg
長さ 0.20 m
直径 2.80 m
スパン 9.00 m
形状 Box + pan
製造者 SPXS
バスタイプ Starlink
フェーズステータス In Orbit
所有者/国 SPXS/US

大規模コンステレーション

Loading constellations...